Vorticity
8 0 10 5 10 13 7 -1 -2 -0 1 1 7 1 4 7 5 3 10 8 6 6 5 5 4 6 6 8 10 9 10 10
19 18 2 11 15 8 14 14 6 5 6 5 2 -1 7 -0 -1 4 -2 6 6 11 4 3 5 4 5 5 7 11 11 11
3 25 -1 17 4 -3 3 2 1 -2 -3 1 -1 1 5 6 9 2 0 -0 2 14 7 5 3 3 3 4 4 7 10 11
9 2 10 8 -8 7 10 7 8 13 13 2 1 7 2 0 -2 8 8 -1 0 2 12 7 4 3 2 2 2 3 8 6
17 9 13 17 8 1 11 1 8 -2 9 19 13 17 22 14 20 4 6 9 -6 11 2 16 9 5 1 2 1 1 4 8
11 13 23 -36 4 26 -12 7 -1 6 18 10 6 0 11 8 9 11 5 8 6 7 -4 8 11 9 7 3 0 2 2 3
11 13 12 19 22 18 -28 21 9 14 5 14 16 4 12 9 19 5 10 5 3 6 11 -2 2 9 10 7 4 1 2 2
13 21 21 3 8 20 12 12 24 10 6 13 10 13 3 7 9 11 10 1 4 -2 8 2 7 6 6 14 7 4 2 1
14 17 22 17 14 15 6 21 14 10 10 6 10 7 5 2 3 8 24 25 -35 -13 30 2 4 14 14 13 10 8 5 1
22 17 8 9 10 10 9 7 8 9 8 7 6 1 4 7 10 11 2 5 24 5 27 3 3 11 16 13 6 4 9 2
14 14 11 14 11 7 6 6 4 3 5 4 6 6 7 8 7 8 7 10 18 0 6 4 -0 2 9 16 8 1 9 5
10 6 9 1 0 1 4 8 -1 3 7 4 5 13 17 17 11 8 6 6 9 10 11 5 0 0 6 12 10 7 8 8
34 19 29 18 17 9 14 10 7 7 8 10 16 23 25 25 21 26 31 -1 3 0 8 4 3 2 2 13 10 8 14 8
12 20 12 22 17 15 12 10 12 15 18 15 11 20 23 22 22 15 15 18 14 18 14 7 13 8 3 9 15 9 12 8
13 14 10 17 20 21 22 19 17 15 19 19 16 13 -11 11 18 18 11 11 10 15 18 21 13 11 4 9 18 7 10 8
12 16 23 18 19 14 13 22 24 22 29 20 21 5 -5 19 8 7 20 21 18 19 17 10 13 9 5 15 13 13 11 8
7 10 7 2 6 20 25 21 17 14 27 20 20 2 26 17 7 10 2 9 7 12 12 36 18 9 9 17 11 3 8 9
4 6 7 7 7 5 4 1 5 14 18 11 36 35 25 26 1 23 28 6 10 8 15 6 8 13 -4 18 4 14 -1 13
11 10 8 4 5 6 7 8 7 3 -1 15 22 14 32 30 19 11 29 11 7 13 24 11 12 22 5 4 18 -16 13 14
Height
3048 3055 3059 3063 3069 3076 3081 3084 3087 3092 3094 3096 3100 3102 3104 3107 3110 3113 3115 3116 3117 3119 3121 3121 3121 3121 3122 3122 3122 3121 3121 3120
3037 3041 3047 3052 3058 3063 3068 3073 3078 3082 3086 3089 3092 3095 3098 3102 3104 3107 3109 3110 3111 3113 3115 3116 3117 3117 3118 3118 3118 3117 3116 3116
3026 3029 3037 3044 3049 3054 3060 3065 3069 3074 3079 3084 3085 3090 3092 3095 3098 3100 3102 3104 3106 3107 3109 3111 3112 3113 3113 3113 3113 3113 3111 3111
3012 3018 3026 3034 3039 3045 3051 3056 3061 3066 3070 3074 3075 3079 3083 3087 3090 3093 3095 3098 3100 3102 3104 3105 3106 3107 3108 3108 3108 3108 3107 3105
3003 3009 3016 3021 3029 3036 3041 3047 3052 3057 3060 3062 3066 3069 3074 3079 3082 3086 3087 3091 3093 3096 3098 3099 3100 3101 3103 3104 3103 3102 3102 3101
2995 3002 3006 3013 3020 3027 3032 3038 3043 3049 3052 3053 3060 3063 3067 3070 3073 3075 3079 3081 3085 3088 3091 3091 3093 3094 3096 3097 3098 3097 3096 3096
2989 2994 2999 3006 3013 3017 3025 3032 3035 3040 3044 3047 3052 3057 3060 3062 3066 3068 3070 3073 3077 3078 3081 3083 3085 3087 3088 3089 3090 3090 3090 3090
2984 2989 2993 2998 3003 3008 3016 3023 3026 3031 3036 3040 3044 3049 3052 3055 3059 3060 3062 3064 3068 3070 3070 3074 3076 3078 3079 3080 3081 3082 3083 3083
2980 2985 2988 2993 2998 3005 3010 3016 3019 3024 3029 3033 3037 3041 3044 3047 3050 3051 3053 3057 3060 3063 3058 3065 3068 3070 3069 3070 3072 3074 3075 3075
2981 2985 2988 2991 2995 3001 3007 3011 3015 3019 3023 3027 3030 3032 3034 3037 3041 3041 3045 3048 3051 3052 3053 3057 3059 3061 3061 3062 3063 3066 3067 3068
2979 2982 2986 2989 2993 2997 3001 3005 3009 3013 3017 3019 3021 3023 3024 3027 3030 3032 3033 3037 3040 3044 3045 3048 3050 3052 3052 3053 3054 3057 3058 3060
2974 2976 2982 2986 2990 2993 2997 3000 3003 3008 3009 3010 3011 3011 3012 3014 3017 3021 3023 3025 3030 3033 3036 3037 3040 3042 3043 3044 3045 3048 3049 3052
2976 2978 2979 2984 2987 2991 2993 2995 2998 2999 3000 3000 3001 3002 3002 3003 3005 3009 3012 3015 3017 3021 3025 3026 3029 3032 3033 3034 3035 3039 3041 3043
2975 2977 2977 2980 2984 2986 2988 2990 2990 2990 2991 2991 2991 2992 2993 2995 2996 2999 3002 3005 3008 3011 3014 3016 3018 3022 3023 3024 3026 3029 3032 3035
2979 2975 2978 2979 2981 2983 2984 2984 2984 2984 2984 2983 2985 2988 2988 2990 2990 2992 2994 2996 2999 3001 3004 3006 3009 3011 3014 3015 3016 3019 3023 3026
2984 2983 2981 2983 2983 2981 2982 2982 2981 2979 2978 2978 2980 2982 2983 2984 2984 2986 2987 2988 2989 2992 2993 2995 2998 3002 3004 3005 3007 3011 3014 3017
2989 2988 2987 2986 2985 2983 2984 2982 2980 2978 2977 2976 2976 2976 2978 2979 2979 2981 2982 2981 2983 2984 2985 2980 2985 2991 2995 2996 2997 3001 3004 3008
2993 2991 2990 2989 2988 2987 2986 2984 2982 2981 2978 2975 2973 2971 2971 2972 2972 2973 2974 2975 2976 2977 2978 2979 2979 2980 2978 2976 2981 2990 2995 2999
2996 2994 2993 2991 2989 2989 2988 2987 2985 2983 2981 2978 2976 2973 2969 2967 2967 2967 2966 2967 2967 2969 2969 2969 2971 2973 2975 2969 2977 2981 2987 2990